Weather in Yashtuga

Russia / Mari El Republic     56°04′19″N   46°13′34″E
temp.,
°C
wind,
m/s
gust,
m/s
humid.,
%
clouds,
%
prec.,
mm/h
press.,
hPa
HPBL,
m
4 march, thu
thu400:00−4wsw51294100 0.3 1003533
03:00−2wsw51193100 0.4 1001675
06:00−3sw51196100 0.2 998498
09:00−1sw81492100 0.5 995865
12:000wsw81599100 1.5 992987
15:000w71384100 3.5 9921247
18:00−4w6148332 0.0 995642
21:00−7w499329 0.1 998230
5 march, fri
fri500:00−10wnw339637 0.0 99961
03:00−13nw239625 0.0 100121
06:00−15wnw12970 0.0 100220
09:00−11wnw23940 0.0 1004142
12:00−7w349135 0.0 1005294
15:00−6wsw478942 0.0 1006570
18:00−9wsw359486 0.0 100789
21:00−9sw249665 0.1 1009111
6 march, sat
sat600:00−11w239789 0.3 101032
03:00−13wnw489789 0.4 1012212
06:00−14wnw2497100 0.1 1014104
09:00−14nw3593100 0.1 1015279
12:00−12wnw348898 0.1 1016578
15:00−10w358599 0.1 1015798
18:00−13wsw3595100 0.1 1014120
21:00−16w229680 0.1 101420
7 march, sun
sun700:00−15sw229798 0.1 101324
03:00−17sw229988 0.1 101320
06:00−18ssw239967 0.0 101120
09:00−14ssw479465 0.0 1009227
12:00−9ssw6108477 0.0 1006498
15:00−7ssw7139288 0.2 1003809
18:00−7ssw81493100 1.1 999992
21:00−6ssw81493100 1.8 995905
8 march, mon
mon800:00−7w81488100 1.2 994744
03:00−11wsw6148783 1.2 995513
06:00−12wsw5138632 0.0 997397
09:00−10sw5108665 0.0 998435
12:00−7ssw488485 0.0 997590
15:00−5ssw477992 0.0 996706
18:00−9ene1192100 0.0 99621
21:00−10wnw239495 0.0 99826